Location: McFarlands Corners
(41.4117°N, 81.3382°W)
Time: 13:52:12
(UTC+00:00)

Tiros 1 despin weight - Pass Details

Date: 25 February 2026
Orbit: 556 x 593 km, 48.2° (Epoch: 11 March)

Event Time Altitude Azimuth Distance (km) Brightness Sun altitude
Rises 22:10:59 0° 298° (WNW) 2,741 ? 10.0°
Reaches altitude 10° 22:13:16 10° 302° (WNW) 1,841 ? 9.6°
Maximum altitude 22:17:26 63° 24° (NNE) 623 ? 8.9°
Drops below altitude 10° 22:21:34 10° 106° (ESE) 1,832 ? 8.2°
Sets 22:23:50 0° 109° (ESE) 2,726 ? 7.8°
